Minot AFB, ND

9:49 PM CST on November 19, 2019 (GMT -0600)
Minot Air Force Base

Weather History for KMIB - September, 2019

Change the Weather History Date:

Thursday, September 26, 2019

  Actual Average Record
Temperature  
Mean Temperature 50 °F -  
Max Temperature 54 °F 62 °F 91 °F (2014)
Min Temperature 44 °F 36 °F 29 °F (2012)
Degree Days  
Heating Degree Days 16    
Moisture  
Dew Point 47 °F    
Average Humidity 85    
Maximum Humidity 95    
Minimum Humidity 70    
Precipitation  
Precipitation 0.17 in - - ()
Sea Level Pressure  
Sea Level Pressure 29.61 in    
Wind  
Wind Speed 8 mph (WNW)    
Max Wind Speed 18 mph    
Max Gust Speed -    
Visibility 10 miles    
Events Rain    
Averages and records for this station are not official NWS values.
T = Trace of Precipitation, MM = Missing Value Source: NWS Daily Summary

Daily Weather History Graph

Daily Weather History Graph

Search for Another Location

Airport or City:

Astronomy

Sep. 26, 2019 Rise Set
Actual Time 7:37 AM CDT 7:35 PM CDT
Civil Twilight 7:06 AM CDT 8:06 PM CDT
Nautical Twilight 6:29 AM CDT 8:42 PM CDT
Astronomical Twilight 5:52 AM CDT 9:20 PM CDT
Moon 4:26 AM CDT (9/26) 7:05 PM CDT (9/26)
Length of Visible Light 13h 00m
Length of Day
11h 57m
Waning Crescent, 6% of the Moon is Illuminated
Sep 26
Waning Crescent
Sep 28
New
Oct 5
First Quarter
Oct 13
Full
Oct 21
Last Quarter

Hourly Weather History & Observations

Time (CDT) Temp. Windchill Dew Point Humidity Pressure Visibility Wind Dir Wind Speed Gust Speed Precip Events Conditions
12:56 AM 44.1 °F 40.1 °F 40.1 °F 86% 29.87 in 10.0 mi WSW 6.9 mph - N/A   Clear
1:56 AM 45.9 °F 41.2 °F 40.6 °F 82% 29.85 in 10.0 mi WSW 9.2 mph - N/A   Overcast
2:56 AM 46.8 °F - 41.2 °F 81% 29.83 in 10.0 mi WSW 9.2 mph - N/A   Overcast
3:56 AM 48.4 °F - 41.2 °F 76% 29.80 in 10.0 mi WSW 10.4 mph - N/A   Overcast
4:56 AM 48.2 °F - 40.6 °F 75% 29.79 in 10.0 mi WSW 9.2 mph - N/A   Overcast
5:56 AM 47.3 °F - 40.5 °F 77% 29.77 in 10.0 mi WSW 8.1 mph - N/A   Mostly Cloudy
6:56 AM 48.9 °F - 41.0 °F 74% 29.77 in 10.0 mi WSW 11.5 mph - N/A   Overcast
7:56 AM 49.8 °F - 40.5 °F 70% 29.75 in 10.0 mi WSW 10.4 mph - N/A   Mostly Cloudy
8:56 AM 49.8 °F - 41.5 °F 73% 29.73 in 10.0 mi WSW 4.6 mph - N/A   Mostly Cloudy
9:56 AM 50.4 °F - 42.8 °F 75% 29.71 in 10.0 mi NE 4.6 mph - N/A   Clear
10:56 AM 51.1 °F - 43.5 °F 75% 29.69 in 10.0 mi Calm Calm - N/A   Clear
11:30 AM 51.8 °F - 44.6 °F 76% 29.68 in 10.0 mi SE 8.1 mph - N/A   Light Drizzle
11:35 AM 51.8 °F - 44.6 °F 76% 29.66 in 10.0 mi SE 6.9 mph - N/A   Partly Cloudy
11:53 AM 51.8 °F - 42.8 °F 71% 29.66 in 10.0 mi ESE 8.1 mph - N/A Rain Light Rain
11:56 AM 52.0 °F - 44.2 °F 75% 29.65 in 10.0 mi East 9.2 mph - 0.00 in Rain Light Rain
12:15 PM 51.8 °F - 44.6 °F 76% 29.63 in 10.0 mi East 9.2 mph - N/A   Scattered Clouds
12:16 PM 51.8 °F - 46.4 °F 82% 29.63 in 10.0 mi East 8.1 mph - N/A   Light Drizzle
12:56 PM 50.7 °F - 46.4 °F 85% 29.63 in 10.0 mi SE 9.2 mph - 0.01 in Rain Light Rain
1:56 PM 51.4 °F - 48.6 °F 90% 29.58 in 10.0 mi ESE 10.4 mph - 0.03 in Rain Light Rain
2:56 PM 52.3 °F - 50.0 °F 92% 29.55 in 10.0 mi SSE 8.1 mph - 0.04 in Rain Light Rain
3:56 PM 52.9 °F - 50.4 °F 91% 29.52 in 10.0 mi SSE 4.6 mph - 0.02 in Rain Light Rain
4:20 PM 53.6 °F - 51.8 °F 94% 29.51 in 10.0 mi SE 5.8 mph - N/A   Clear
4:56 PM 54.5 °F - 51.1 °F 88% 29.50 in 10.0 mi SSE 3.5 mph - 0.00 in   Scattered Clouds
5:56 PM 54.7 °F - 51.3 °F 88% 29.49 in 10.0 mi Calm Calm - N/A   Mostly Cloudy
6:02 PM 55.4 °F - 51.8 °F 88% 29.49 in 10.0 mi Calm Calm - N/A   Light Drizzle
6:21 PM 55.4 °F - 51.8 °F 88% 29.50 in 10.0 mi Calm Calm - N/A   Partly Cloudy
6:23 PM 55.4 °F - 51.8 °F 88% 29.49 in 10.0 mi Calm Calm - N/A Rain Light Rain
6:56 PM 54.0 °F - 52.3 °F 94% 29.49 in 10.0 mi Calm Calm - 0.01 in   Light Drizzle
6:57 PM 53.6 °F - 51.8 °F 94% 29.49 in 10.0 mi Calm Calm - N/A   Mostly Cloudy
7:01 PM 53.6 °F - 51.8 °F 94% 29.49 in 10.0 mi Calm Calm - N/A Rain Light Rain
7:13 PM 53.6 °F - 51.8 °F 94% 29.50 in 4.0 mi North 4.6 mph - N/A Rain Rain
7:35 PM 53.6 °F - 51.8 °F 94% 29.50 in 10.0 mi Calm Calm - N/A   Overcast
7:42 PM 53.6 °F - 51.8 °F 94% 29.50 in 10.0 mi WNW 3.5 mph - N/A Rain Light Rain
7:56 PM 53.2 °F - 51.6 °F 94% 29.50 in 10.0 mi NW 4.6 mph - 0.05 in   Overcast
8:56 PM 52.2 °F - 50.7 °F 95% 29.52 in 10.0 mi WNW 4.6 mph - 0.01 in   Overcast
9:56 PM 51.1 °F - 48.2 °F 90% 29.53 in 10.0 mi WNW 10.4 mph - N/A   Overcast
10:27 PM 50.0 °F - 48.2 °F 94% 29.55 in 10.0 mi North 17.3 mph - N/A   Overcast
10:32 PM 50.0 °F - 48.2 °F 94% 29.55 in 10.0 mi North 17.3 mph - N/A   Overcast
10:37 PM 50.0 °F - 46.4 °F 87% 29.56 in 10.0 mi North 18.4 mph - N/A   Overcast
10:44 PM 48.2 °F - 44.6 °F 87% 29.56 in 10.0 mi North 17.3 mph - N/A   Overcast
10:49 PM 46.4 °F 39.8 °F 44.6 °F 93% 29.57 in 10.0 mi North 16.1 mph - N/A   Overcast
10:56 PM 46.6 °F - 44.6 °F 93% 29.57 in 10.0 mi North 13.8 mph - N/A   Overcast
11:56 PM 44.1 °F 36.8 °F 42.1 °F 93% 29.60 in 10.0 mi North 16.1 mph - N/A   Overcast